Regional Weather Roundup
Issued by NWS

Home | Current Version | Previous Version | Graphics & Text | Print | Product List | Glossary On
Versions: 1 2 3 4 5 6 7 8 9 10 11 12 13 14 15 16 17 18 19 20 21 22 23 24 25 26 27 28 29 30 31 32 33 34 35 36 37 38 39 40 41 42 43 44 45 46 47 48 49 50
000
ASUS43 KFSD 211910
RWRSD

WEATHER ROUNDUP FOR SOUTH DAKOTA
NATIONAL WEATHER SERVICE SIOUX FALLS SD
100 PM CST SUN DEC 21 2014

NOTE: "FAIR" INDICATES FEW OR NO CLOUDS BELOW 12,000 FEET WITH NO
SIGNIFICANT WEATHER AND/OR OBSTRUCTIONS TO VISIBILITY.


SDZ001>005-009-010-012>017-212000-
NORTHWEST AND NORTH CENTRAL SOUTH DAKOTA

CITY           SKY/WX    TMP DP  RH WIND       PRES   REMARKS
BUFFALO          N/A     37  29  72 W5        29.35F
FAITH            N/A     38  28  67 E5        29.41F
MOBRIDGE       SUNNY     40  29  64 SE9       29.44F
$$

SDZ012>016-024>037-041>051-057-063-072>074-212000-
SOUTHWEST AND SOUTH CENTRAL SOUTH DAKOTA

CITY           SKY/WX    TMP DP  RH WIND       PRES   REMARKS
RAPID CTY ARPT CLOUDY    42  30  62 CALM      29.41F
PIERRE         SUNNY     32  27  81 SE9       29.46F WCI  24
CUSTER         PTSUNNY   39  26  59 W9        29.40F
ELLSWORTH AFB  CLOUDY    43  26  49 CALM      29.40F
PHILIP         SUNNY     46  30  53 NE3       29.42F
PINE RIDGE     PTSUNNY   47  29  49 S18       29.44F
SPEARFISH      FAIR      41  27  56 CALM      29.41F
WINNER         FAIR      43  28  55 S15       29.48F
$$

SDZ004>011-016>023-039-040-212000-
NORTHEAST SOUTH DAKOTA

CITY           SKY/WX    TMP DP  RH WIND       PRES   REMARKS
ABERDEEN       CLOUDY    33  30  88 SE14      29.57F FOG     WCI  23
WATERTOWN      CLOUDY    32  30  92 S16       29.60F FOG     WCI  21
$$

SDZ017-020-022-023-036>040-048>070-212000-
SOUTHEAST SOUTH DAKOTA

CITY           SKY/WX    TMP DP  RH WIND       PRES   REMARKS
SIOUX FALLS    CLOUDY    34  33  96 S15       29.65F FOG     WCI  24
HURON          CLOUDY    32  30  92 SE13G23   29.56F FOG     WCI  22
CHAMBERLAIN    SUNNY     33  28  83 SE10      29.50F WCI  25
MITCHELL       SUNNY     35  31  85 S18       29.59F WCI  24
YANKTON        MOSUNNY   37  32  81 S15       29.65F
$$

ABBREVIATIONS USED IN REMARKS
   TC - TEMPERATURE IN CELSIUS
  WCI - WIND CHILL INDEX
   HX - HEAT INDEX
  VSB - VISIBILITY



USA.gov is the U.S. government's official web portal to all federal, state and local government web resources and services.